DW3212 Weather Reports


Display with metric or nautical units.
time (UTC)temp
F
wind
direction
speed
MPH
gust
MPH
rain 1hr
in
rain 24hr
in
rain mn
in
humidity
%
barometer
mb
20221003110045 36 287 0.0 4.0 0.00 0.00 0.00 78 1025.0
20221003104603 36 293 2.0 6.0 0.00 0.00 0.00 75 1025.0
20221003101506 36 296 0.0 5.0 0.00 0.00 0.00 76 1024.9
20221003100104 37 296 0.0 6.0 0.00 0.00 0.00 76 1024.5
20221003094545 37 288 0.0 6.0 0.00 0.00 0.00 77 1024.4
20221003093036 37 273 0.0 6.0 0.00 0.00 0.00 76 1024.3
20221003091529 37 291 2.0 8.0 0.00 0.00 0.00 75 1023.9
20221003090016 38 296 3.0 7.0 0.00 0.00 0.00 74 1023.7
20221003084540 38 338 2.0 7.0 0.00 0.00 0.00 74 1023.8
20221003083005 38 336 1.0 11.0 0.00 0.00 0.00 73 1023.7
20221003081539 38 311 2.0 9.0 0.00 0.00 0.00 73 1023.9
20221003080057 38 300 3.0 10.0 0.00 0.00 0.00 76 1023.9
20221003074559 38 327 0.0 4.0 0.00 0.00 0.00 73 1024.2
20221003073045 38 326 0.0 3.0 0.00 0.00 0.00 75 1024.3
20221003071520 38 326 0.0 8.0 0.00 0.00 0.00 76 1024.3
20221003070016 37 293 0.0 6.0 0.00 0.00 0.00 77 1024.3
20221003064514 37 292 0.0 5.0 0.00 0.00 0.00 78 1024.3
20221003063055 38 292 0.0 2.0 0.00 0.00 0.00 78 1024.4
20221003061548 38 292 0.0 5.0 0.00 0.00 0.00 79 1024.2
20221003060059 38 291 1.0 6.0 0.00 0.00 0.00 79 1024.1
20221003054526 38 350 0.0 10.0 0.00 0.00 0.00 79 1024.1
20221003053013 38 293 0.0 4.0 0.00 0.00 0.00 79 1024.0
20221003050045 39 301 1.0 5.0 0.00 0.00 0.00 79 1024.1
20221003043031 39 297 3.0 7.0 0.00 0.00 0.00 80 1024.1
20221003040005 39 285 0.0 7.0 0.00 0.00 0.00 81 1024.4
20221003034659 39 283 0.0 5.0 0.00 0.00 0.00 81 1024.4
20221003033042 39 301 0.0 5.0 0.00 0.00 0.00 81 1024.3
20221003031635 39 288 1.0 4.0 0.00 0.00 0.00 82 1024.1
20221003030021 40 289 0.0 5.0 0.00 0.00 0.00 82 1024.1
20221003024613 40 288 0.0 6.0 0.00 0.00 0.00 83 1024.0
20221003021549 40 284 0.0 4.0 0.00 0.00 0.00 85 1023.7
20221003020030 40 283 0.0 5.0 0.00 0.00 0.00 84 1023.8
20221003014522 41 275 0.0 6.0 0.00 0.00 0.00 85 1023.8
20221003013049 41 341 0.0 4.0 0.00 0.00 0.00 85 1023.6
20221003011612 41 342 0.0 2.0 0.00 0.00 0.00 85 1023.2
20221003010057 41 342 0.0 1.0 0.00 0.00 0.00 85 1023.1
20221003004513 41 342 0.0 2.0 0.00 0.00 0.00 85 1023.1
20221003003051 41 342 0.0 1.0 0.00 0.00 0.00 84 1023.3
20221003001538 41 342 0.0 0.0 0.00 0.00 0.00 84 1023.2
20221003000019 42 342 0.0 0.0 0.00 0.00 0.00 84 1023.0
20221002234510 42 342 0.0 0.0 0.00 0.00 0.00 83 1023.0
20221002233012 43 342 0.0 2.0 0.00 0.00 0.00 82 1022.8
20221002231602 43 341 0.0 0.0 0.00 0.00 0.00 82 1022.7
20221002230047 44 341 0.0 1.0 0.00 0.00 0.00 82 1022.4
20221002224538 44 342 0.0 3.0 0.00 0.00 0.00 81 1022.2
20221002223011 45 355 0.0 2.0 0.00 0.00 0.00 80 1022.0
20221002221502 46 355 0.0 5.0 0.00 0.00 0.00 79 1022.0
20221002214541 47 350 0.0 2.0 0.00 0.00 0.00 76 1021.9
20221002213012 48 286 1.0 7.0 0.00 0.00 0.00 75 1021.6
20221002211604 48 34 2.0 8.0 0.00 0.00 0.00 73 1021.4
20221002210145 49 55 5.0 10.0 0.00 0.00 0.00 71 1021.3
20221002204531 49 9 0.0 8.0 0.00 0.00 0.00 74 1021.3
20221002203124 48 50 2.0 10.0 0.00 0.00 0.00 72 1021.2
20221002201556 49 32 3.0 10.0 0.00 0.00 0.00 72 1021.1
20221002200146 49 32 3.0 9.0 0.00 0.00 0.00 72 1021.1
20221002194556 48 57 4.0 14.0 0.00 0.00 0.00 73 1021.1
20221002193044 48 251 3.0 10.0 0.00 0.00 0.00 74 1021.0
20221002191502 48 13 2.0 9.0 0.00 0.00 0.00 74 1021.1
20221002190001 49 54 3.0 9.0 0.00 0.00 0.00 72 1021.2
20221002184541 49 360 5.0 13.0 0.00 0.00 0.00 70 1021.0
20221002183038 49 29 6.0 16.0 0.00 0.00 0.00 73 1020.9
20221002181554 50 17 1.0 12.0 0.00 0.00 0.00 76 1020.8
20221002180033 48 24 6.0 10.0 0.00 0.00 0.00 76 1021.2
20221002174518 46 302 2.0 11.0 0.00 0.00 0.00 81 1021.4
20221002173025 45 45 4.0 11.0 0.00 0.00 0.00 82 1021.6
20221002171514 44 55 6.0 10.0 0.00 0.00 0.00 82 1021.5
20221002170013 44 52 5.0 10.0 0.00 0.00 0.00 83 1021.6
20221002164507 44 327 2.0 8.0 0.00 0.00 0.00 84 1021.4
20221002163009 44 16 2.0 10.0 0.00 0.00 0.00 83 1021.4
20221002161505 44 55 4.0 9.0 0.00 0.00 0.00 83 1021.4
20221002160007 44 40 4.0 11.0 0.00 0.00 0.00 83 1021.4
20221002154600 44 30 2.0 12.0 0.00 0.00 0.00 83 1021.4
20221002153100 44 70 4.0 7.0 0.00 0.00 0.00 83 1021.4
20221002151603 44 355 4.0 10.0 0.00 0.00 0.00 83 1021.5
20221002150057 44 12 1.0 9.0 0.00 0.00 0.00 84 1021.2
20221002144518 44 26 5.0 10.0 0.00 0.00 0.00 84 1020.7
20221002143015 44 92 2.0 11.0 0.00 0.00 0.00 84 1020.6
20221002141513 44 72 2.0 8.0 0.00 0.00 0.00 84 1021.2
20221002140011 44 5 2.0 9.0 0.00 0.00 0.00 84 1020.7
20221002134508 44 336 6.0 16.0 0.00 0.00 0.00 84 1020.9
20221002133009 45 36 5.0 13.0 0.00 0.00 0.00 84 1020.5
20221002131502 45 350 1.0 11.0 0.00 0.00 0.00 84 1020.4
20221002130101 45 332 5.0 9.0 0.00 0.00 0.00 84 1020.0
20221002123112 45 31 4.0 8.0 0.00 0.00 0.00 84 1019.9
20221002121548 45 316 6.0 16.0 0.00 0.00 0.00 84 1019.8
20221002120101 45 53 4.0 8.0 0.00 0.00 0.00 84 1019.7
20221002114544 46 51 4.0 8.0 0.00 0.00 0.00 84 1019.6
20221002113116 46 325 6.0 20.0 0.00 0.00 0.00 84 1019.4
20221002111545 46 57 2.0 10.0 0.00 0.00 0.00 84 1019.3